Location: Bletchingley
(51.2333°N, 0.1000°W)
Time: 02:21:20
(UTC+00:00)

USA 229 - Pass Details

Date: 18 September 2020
Orbit: 973 x 1239 km, 63.4° (Epoch: 14 October)

Event Time Altitude Azimuth Distance (km) Brightness Sun altitude
Rises 18:40:27 0° 242° (WSW) 3,714 7.5 -6.0°
Reaches altitude 10° 18:43:02 10° 247° (WSW) 2,792 6.9 -6.4°
Maximum altitude 18:49:29 56° 325° (NW) 1,243 4.4 -7.4°
Drops below altitude 10° 18:56:24 10° 43° (NE) 2,979 5.7 -8.5°
Sets 18:59:15 0° 48° (NE) 3,981 6.4 -8.9°
